パンスターズ彗星

364P/PanSTARRS (2018)

English version
Home page
Updated on May 20, 2019

---------------------------------------------------------------------

・ プロフィール

符号 364P/2018 A2
検出日 2018年1月12日、1月16日
検出光度 20.6等、20.0等
検出者 D. C. Fuls (Mount Lemmon), Erwin Schwab (Egelsbach, Germany)

・ 写真集

・ 軌道要素

Epoch 2018 June 11.0 TT = JDT 2458280.5
T 2018 June 24.36601 TT                                 MPCW
q   0.7978528            (2000.0)            P               Q
n   0.20191332     Peri.  211.92795     -0.21380779     +0.96497036
a   2.8775711      Node    46.22815     -0.84612862     -0.10514673
e   0.7227339      Incl.   12.15534     -0.48821367     -0.24036714
P   4.88
From 681 observations 2013 Feb. 1-2018 Nov. 27, mean residual 0".6.

・ 星図

・ 光度変化

        H = 16.5  G = 0.15                       [   ,-63]  (              〜2018年 4月22日)
        m1 = 16.0 + 5 logΔ + 25.0 log r(t - 5)  [-63, 68]  (2018年 4月22日〜2018年 8月31日)
        H = 16.5  G = 0.15                       [ 68,   ]  (2018年 8月31日〜              )

---------------------------------------------------------------------

軌道要素はM.P.E.C. 2019-J142に掲載されたものです。
星図はステラナビゲータ Ver.8 (アストロアーツ) で作成したものです。
光度グラフはComet for Windowsで作成したものです。

---------------------------------------------------------------------

Copyright(C) Seiichi Yoshida (comet@aerith.net). All rights reserved.